TimeMDT,TemperatureF,Dew PointF,Humidity,Sea Level PressureIn,VisibilityMPH,Wind Direction,Wind SpeedMPH,Gust SpeedMPH,PrecipitationIn,Events,Conditions,WindDirDegrees,DateUTC
12:52 AM,42.1,39.0,89,29.99,-9999.0,Calm,Calm,-,N/A,,Unknown,0,2013-04-01 06:52:00
1:52 AM,39.9,37.9,93,29.99,-9999.0,North,3.5,-,N/A,,Unknown,350,2013-04-01 07:52:00
2:52 AM,39.0,37.0,93,30.00,-9999.0,Calm,Calm,-,N/A,,Unknown,0,2013-04-01 08:52:00
3:52 AM,37.9,37.0,97,30.00,-9999.0,NNW,3.5,-,N/A,,Unknown,340,2013-04-01 09:52:00
4:52 AM,37.0,36.0,96,30.01,-9999.0,Calm,Calm,-,N/A,,Unknown,0,2013-04-01 10:52:00
5:52 AM,37.0,35.1,93,30.03,-9999.0,NW,3.5,-,N/A,,Unknown,310,2013-04-01 11:52:00
6:52 AM,36.0,34.0,93,30.05,-9999.0,Calm,Calm,-,N/A,,Unknown,0,2013-04-01 12:52:00
7:52 AM,35.1,34.0,96,30.07,-9999.0,NNW,4.6,-,N/A,,Unknown,340,2013-04-01 13:52:00
8:52 AM,36.0,34.0,93,30.08,-9999.0,NNW,3.5,-,N/A,,Unknown,340,2013-04-01 14:52:00
9:52 AM,43.0,37.0,80,30.05,-9999.0,Calm,Calm,-,N/A,,Unknown,0,2013-04-01 15:52:00
10:52 AM,50.0,37.9,63,30.02,-9999.0,Calm,Calm,-,N/A,,Unknown,0,2013-04-01 16:52:00
11:52 AM,55.9,37.9,51,29.99,-9999.0,Calm,Calm,-,N/A,,Unknown,0,2013-04-01 17:52:00
12:52 PM,62.1,37.0,39,29.96,-9999.0,Calm,Calm,-,N/A,,Unknown,0,2013-04-01 18:52:00
1:52 PM,68.0,37.9,33,29.92,-9999.0,Calm,Calm,-,N/A,,Unknown,0,2013-04-01 19:52:00
2:52 PM,70.0,37.9,31,29.90,-9999.0,SSE,8.1,-,N/A,,Unknown,160,2013-04-01 20:52:00
3:52 PM,72.0,37.9,29,29.89,-9999.0,SSE,9.2,-,N/A,,Unknown,160,2013-04-01 21:52:00
4:52 PM,73.0,39.0,29,29.88,-9999.0,SSE,4.6,-,N/A,,Unknown,160,2013-04-01 22:52:00
5:52 PM,64.9,41.0,42,29.90,-9999.0,Variable,3.5,-,N/A,,Unknown,0,2013-04-01 23:52:00
6:52 PM,57.0,45.0,64,29.92,-9999.0,Calm,Calm,-,N/A,,Unknown,0,2013-04-02 00:52:00
7:52 PM,53.1,45.0,74,29.96,-9999.0,Calm,Calm,-,N/A,,Unknown,0,2013-04-02 01:52:00
8:52 PM,48.9,43.0,80,29.99,-9999.0,Calm,Calm,-,N/A,,Unknown,0,2013-04-02 02:52:00
9:52 PM,48.0,44.1,86,30.01,-9999.0,Calm,Calm,-,N/A,,Unknown,0,2013-04-02 03:52:00
10:52 PM,46.0,43.0,89,30.04,-9999.0,Calm,Calm,-,N/A,,Unknown,0,2013-04-02 04:52:00
11:52 PM,45.0,42.1,90,30.04,-9999.0,Calm,Calm,-,N/A,,Unknown,0,2013-04-02 05:52:00